| time (UTC) | temp C | wind direction | speed KPH | gust KPH | rain 1hr cm | rain 24hr cm | rain mn cm | humidity % | barometer mb |
| 20260506192459 | 19 | 193 | 11.3 | 17.7 | 0.00 | 0.03 | 0.00 | 78 | 1005.1 |
| 20260506191959 | 19 | 169 | 3.2 | 19.3 | 0.00 | 0.03 | 0.00 | 77 | 1005.1 |
| 20260506191459 | 19 | 167 | 8.0 | 25.7 | 0.00 | 0.03 | 0.00 | 77 | 1005.2 |
| 20260506190959 | 19 | 204 | 11.3 | 32.2 | 0.00 | 0.03 | 0.00 | 76 | 1005.2 |
| 20260506190459 | 19 | 145 | 4.8 | 32.2 | 0.00 | 0.03 | 0.00 | 76 | 1005.2 |
| 20260506185959 | 20 | 164 | 19.3 | 29.0 | 0.00 | 0.03 | 0.00 | 75 | 1005.2 |
| 20260506185459 | 20 | 192 | 11.3 | 17.7 | 0.00 | 0.03 | 0.00 | 75 | 1005.2 |
| 20260506184959 | 20 | 144 | 4.8 | 20.9 | 0.00 | 0.03 | 0.00 | 75 | 1005.2 |
| 20260506184459 | 20 | 192 | 6.4 | 17.7 | 0.00 | 0.03 | 0.00 | 75 | 1005.2 |
| 20260506183959 | 20 | 186 | 8.0 | 17.7 | 0.00 | 0.03 | 0.00 | 74 | 1005.2 |
| 20260506183459 | 20 | 163 | 4.8 | 38.6 | 0.00 | 0.03 | 0.00 | 74 | 1005.2 |
| 20260506182959 | 20 | 159 | 12.9 | 27.4 | 0.00 | 0.03 | 0.00 | 74 | 1005.4 |
| 20260506182459 | 20 | 151 | 11.3 | 37.0 | 0.00 | 0.03 | 0.00 | 75 | 1005.4 |
| 20260506181959 | 20 | 161 | 14.5 | 19.3 | 0.00 | 0.03 | 0.00 | 75 | 1005.4 |
| 20260506181459 | 20 | 211 | 9.7 | 22.5 | 0.00 | 0.03 | 0.00 | 75 | 1005.6 |
| 20260506180959 | 20 | 188 | 9.7 | 29.0 | 0.00 | 0.03 | 0.00 | 75 | 1005.6 |
| 20260506180459 | 20 | 167 | 4.8 | 22.5 | 0.00 | 0.03 | 0.00 | 75 | 1005.6 |
| 20260506175959 | 20 | 184 | 11.3 | 14.5 | 0.00 | 0.03 | 0.00 | 75 | 1005.7 |
| 20260506175502 | 20 | 155 | 6.4 | 17.7 | 0.00 | 0.03 | 0.00 | 75 | 1005.7 |
| 20260506175002 | 20 | 180 | 9.7 | 30.6 | 0.00 | 0.03 | 0.00 | 74 | 1005.7 |
| 20260506174459 | 20 | 197 | 8.0 | 12.9 | 0.00 | 0.03 | 0.00 | 74 | 1005.6 |
| 20260506173959 | 20 | 188 | 6.4 | 35.4 | 0.00 | 0.03 | 0.00 | 73 | 1005.6 |
| 20260506173459 | 20 | 182 | 17.7 | 29.0 | 0.00 | 0.03 | 0.00 | 75 | 1005.6 |
| 20260506172959 | 20 | 173 | 20.9 | 24.1 | 0.00 | 0.03 | 0.00 | 75 | 1005.4 |
| 20260506172459 | 20 | 170 | 6.4 | 12.9 | 0.00 | 0.03 | 0.00 | 77 | 1005.4 |
| 20260506171959 | 20 | 147 | 11.3 | 22.5 | 0.00 | 0.03 | 0.00 | 76 | 1005.4 |
| 20260506171459 | 20 | 136 | 11.3 | 16.1 | 0.00 | 0.03 | 0.00 | 78 | 1005.7 |
| 20260506170959 | 20 | 191 | 6.4 | 11.3 | 0.00 | 0.03 | 0.00 | 82 | 1005.7 |
| 20260506170459 | 20 | 169 | 3.2 | 9.7 | 0.00 | 0.03 | 0.00 | 81 | 1005.7 |
| 20260506165959 | 19 | 129 | 1.6 | 6.4 | 0.00 | 0.03 | 0.00 | 80 | 1006.2 |
| 20260506165459 | 19 | 175 | 6.4 | 9.7 | 0.00 | 0.03 | 0.00 | 80 | 1006.2 |
| 20260506164959 | 19 | 182 | 3.2 | 14.5 | 0.00 | 0.00 | 0.00 | 80 | 1006.2 |
| 20260506164459 | 19 | 137 | 1.6 | 8.0 | 0.00 | 0.00 | 0.00 | 79 | 1006.8 |
| 20260506163959 | 19 | 177 | 3.2 | 11.3 | 0.00 | 0.00 | 0.00 | 79 | 1006.8 |
| 20260506163459 | 19 | 164 | 3.2 | 8.0 | 0.00 | 0.00 | 0.00 | 78 | 1006.8 |
| 20260506162959 | 19 | 190 | 4.8 | 9.7 | 0.00 | 0.00 | 0.00 | 78 | 1007.2 |
| 20260506162459 | 19 | 167 | 1.6 | 12.9 | 0.00 | 0.00 | 0.00 | 77 | 1007.2 |
| 20260506161959 | 19 | 151 | 4.8 | 11.3 | 0.00 | 0.00 | 0.00 | 77 | 1007.2 |
| 20260506161459 | 20 | 192 | 1.6 | 11.3 | 0.00 | 0.00 | 0.00 | 75 | 1007.3 |
| 20260506160959 | 20 | 145 | 3.2 | 6.4 | 0.00 | 0.00 | 0.00 | 75 | 1007.3 |
| 20260506160459 | 20 | 163 | 6.4 | 8.0 | 0.00 | 0.00 | 0.00 | 75 | 1007.3 |
| 20260506155959 | 20 | 153 | 1.6 | 11.3 | 0.00 | 0.00 | 0.00 | 73 | 1007.2 |
| 20260506155501 | 20 | 183 | 1.6 | 11.3 | 0.00 | 0.00 | 0.00 | 72 | 1007.2 |
| 20260506154959 | 20 | 206 | 4.8 | 19.3 | 0.00 | 0.00 | 0.00 | 70 | 1007.2 |
| 20260506154459 | 21 | 158 | 4.8 | 17.7 | 0.00 | 0.00 | 0.00 | 68 | 1007.1 |
| 20260506153959 | 21 | 159 | 6.4 | 27.4 | 0.00 | 0.00 | 0.00 | 64 | 1007.1 |
| 20260506153503 | 21 | 167 | 6.4 | 35.4 | 0.00 | 0.00 | 0.00 | 64 | 1007.1 |
| 20260506152958 | 21 | 161 | 11.3 | 35.4 | 0.00 | 0.00 | 0.00 | 62 | 1007.1 |
| 20260506152459 | 21 | 176 | 12.9 | 22.5 | 0.00 | 0.00 | 0.00 | 62 | 1007.1 |
| 20260506151959 | 21 | 186 | 11.3 | 22.5 | 0.00 | 0.00 | 0.00 | 64 | 1007.1 |
| 20260506151458 | 21 | 161 | 17.7 | 29.0 | 0.00 | 0.00 | 0.00 | 63 | 1007.2 |
| 20260506150959 | 21 | 186 | 11.3 | 30.6 | 0.00 | 0.00 | 0.00 | 63 | 1007.2 |
| 20260506150459 | 21 | 171 | 9.7 | 11.3 | 0.00 | 0.00 | 0.00 | 63 | 1007.2 |
| 20260506145958 | 21 | 168 | 14.5 | 19.3 | 0.00 | 0.00 | 0.00 | 63 | 1007.2 |
| 20260506145459 | 21 | 124 | 4.8 | 17.7 | 0.00 | 0.00 | 0.00 | 63 | 1007.2 |
| 20260506144958 | 21 | 184 | 12.9 | 19.3 | 0.00 | 0.00 | 0.00 | 62 | 1007.2 |
| 20260506144458 | 21 | 157 | 9.7 | 25.7 | 0.00 | 0.00 | 0.00 | 62 | 1007.2 |
| 20260506143958 | 21 | 226 | 11.3 | 25.7 | 0.00 | 0.00 | 0.00 | 62 | 1007.2 |
| 20260506143458 | 21 | 172 | 6.4 | 19.3 | 0.00 | 0.00 | 0.00 | 62 | 1007.2 |
| 20260506142959 | 21 | 211 | 8.0 | 19.3 | 0.00 | 0.00 | 0.00 | 62 | 1007.2 |
| 20260506142501 | 21 | 254 | 14.5 | 17.7 | 0.00 | 0.00 | 0.00 | 62 | 1007.2 |
| 20260506141958 | 21 | 245 | 16.1 | 17.7 | 0.00 | 0.00 | 0.00 | 63 | 1007.2 |
| 20260506141458 | 21 | 166 | 11.3 | 27.4 | 0.00 | 0.00 | 0.00 | 63 | 1007.2 |
| 20260506141001 | 21 | 170 | 16.1 | 16.1 | 0.00 | 0.00 | 0.00 | 64 | 1007.2 |
| 20260506140458 | 21 | 185 | 4.8 | 27.4 | 0.00 | 0.00 | 0.00 | 63 | 1007.2 |
| 20260506135958 | 21 | 176 | 14.5 | 24.1 | 0.00 | 0.00 | 0.00 | 63 | 1007.1 |
| 20260506135458 | 21 | 211 | 11.3 | 25.7 | 0.00 | 0.00 | 0.00 | 63 | 1007.1 |
| 20260506134958 | 21 | 184 | 16.1 | 32.2 | 0.00 | 0.00 | 0.00 | 63 | 1007.1 |
| 20260506134458 | 21 | 166 | 19.3 | 25.7 | 0.00 | 0.00 | 0.00 | 64 | 1007.2 |
| 20260506133958 | 21 | 184 | 14.5 | 19.3 | 0.00 | 0.00 | 0.00 | 64 | 1007.2 |
| 20260506133501 | 21 | 178 | 11.3 | 29.0 | 0.00 | 0.00 | 0.00 | 63 | 1007.2 |
| 20260506132958 | 21 | 149 | 6.4 | 29.0 | 0.00 | 0.00 | 0.00 | 63 | 1007.3 |
| 20260506132458 | 21 | 205 | 3.2 | 20.9 | 0.00 | 0.00 | 0.00 | 63 | 1007.3 |
| 20260506131958 | 21 | 184 | 12.9 | 20.9 | 0.00 | 0.00 | 0.00 | 63 | 1007.3 |
| 20260506131458 | 21 | 136 | 4.8 | 19.3 | 0.00 | 0.00 | 0.00 | 64 | 1007.3 |
| 20260506130958 | 21 | 161 | 14.5 | 27.4 | 0.00 | 0.00 | 0.00 | 65 | 1007.3 |
| 20260506130458 | 21 | 189 | 8.0 | 22.5 | 0.00 | 0.00 | 0.00 | 66 | 1007.3 |
| 20260506125958 | 21 | 180 | 11.3 | 33.8 | 0.00 | 0.00 | 0.00 | 67 | 1007.2 |
| 20260506125458 | 21 | 156 | 9.7 | 33.8 | 0.00 | 0.00 | 0.00 | 66 | 1007.2 |
| 20260506125001 | 21 | 181 | 22.5 | 22.5 | 0.00 | 0.00 | 0.00 | 68 | 1007.2 |
| 20260506124458 | 20 | 138 | 3.2 | 12.9 | 0.00 | 0.00 | 0.00 | 69 | 1007.1 |
| 20260506123958 | 20 | 139 | 8.0 | 16.1 | 0.00 | 0.00 | 0.00 | 69 | 1007.1 |
| 20260506123458 | 20 | 184 | 4.8 | 20.9 | 0.00 | 0.00 | 0.00 | 69 | 1007.1 |
| 20260506122958 | 20 | 144 | 9.7 | 9.7 | 0.00 | 0.00 | 0.00 | 71 | 1007.4 |
| 20260506122458 | 19 | 163 | 4.8 | 29.0 | 0.00 | 0.00 | 0.00 | 70 | 1007.4 |
| 20260506121958 | 19 | 209 | 6.4 | 14.5 | 0.00 | 0.00 | 0.00 | 70 | 1007.4 |
| 20260506121458 | 19 | 164 | 4.8 | 14.5 | 0.00 | 0.00 | 0.00 | 71 | 1007.4 |
| 20260506120958 | 19 | 159 | 6.4 | 12.9 | 0.00 | 0.00 | 0.00 | 71 | 1007.4 |
| 20260506120458 | 19 | 165 | 6.4 | 16.1 | 0.00 | 0.00 | 0.00 | 71 | 1007.4 |
| 20260506115958 | 19 | 180 | 3.2 | 19.3 | 0.00 | 0.00 | 0.00 | 71 | 1007.6 |
| 20260506115458 | 19 | 169 | 4.8 | 12.9 | 0.00 | 0.00 | 0.00 | 71 | 1007.6 |
| 20260506114958 | 19 | 176 | 6.4 | 17.7 | 0.00 | 0.00 | 0.00 | 72 | 1007.6 |
| 20260506114458 | 19 | 194 | 8.0 | 14.5 | 0.00 | 0.00 | 0.00 | 72 | 1007.6 |
| 20260506113958 | 18 | 186 | 4.8 | 14.5 | 0.00 | 0.00 | 0.00 | 72 | 1007.6 |
| 20260506113502 | 18 | 181 | 6.4 | 24.1 | 0.00 | 0.00 | 0.00 | 72 | 1007.6 |
| 20260506112958 | 18 | 152 | 8.0 | 19.3 | 0.00 | 0.00 | 0.00 | 73 | 1007.6 |
| 20260506112458 | 18 | 138 | 1.6 | 17.7 | 0.00 | 0.00 | 0.00 | 73 | 1007.6 |
| 20260506111958 | 18 | 155 | 8.0 | 16.1 | 0.00 | 0.00 | 0.00 | 75 | 1007.6 |
| 20260506111501 | 18 | 185 | 9.7 | 19.3 | 0.00 | 0.00 | 0.00 | 75 | 1007.6 |
| 20260506110958 | 18 | 163 | 3.2 | 16.1 | 0.00 | 0.00 | 0.00 | 75 | 1007.6 |
| 20260506110458 | 18 | 182 | 6.4 | 14.5 | 0.00 | 0.00 | 0.00 | 76 | 1007.6 |
| 20260506110001 | 18 | 179 | 9.7 | 17.7 | 0.00 | 0.00 | 0.00 | 76 | 1007.3 |
| 20260506105458 | 18 | 175 | 4.8 | 17.7 | 0.00 | 0.00 | 0.00 | 76 | 1007.3 |
| 20260506105001 | 18 | 121 | 3.2 | 11.3 | 0.00 | 0.00 | 0.00 | 77 | 1007.3 |
| 20260506104458 | 18 | 214 | 6.4 | 8.0 | 0.00 | 0.00 | 0.00 | 77 | 1007.3 |
| 20260506103958 | 17 | 134 | 8.0 | 8.0 | 0.00 | 0.00 | 0.00 | 77 | 1007.3 |
| 20260506103458 | 17 | 182 | 6.4 | 12.9 | 0.00 | 0.00 | 0.00 | 77 | 1007.3 |
| 20260506103001 | 17 | 161 | 4.8 | 8.0 | 0.00 | 0.00 | 0.00 | 77 | 1007.4 |
| 20260506102458 | 17 | 138 | 6.4 | 16.1 | 0.00 | 0.00 | 0.00 | 77 | 1007.4 |
| 20260506102001 | 17 | 180 | 4.8 | 14.5 | 0.00 | 0.00 | 0.00 | 77 | 1007.4 |
| 20260506101458 | 17 | 168 | 1.6 | 11.3 | 0.00 | 0.00 | 0.00 | 77 | 1007.4 |
| 20260506101001 | 17 | 236 | 8.0 | 17.7 | 0.00 | 0.00 | 0.00 | 77 | 1007.4 |
| 20260506100458 | 17 | 173 | 11.3 | 14.5 | 0.00 | 0.00 | 0.00 | 77 | 1007.4 |
| 20260506095958 | 18 | 160 | 3.2 | 8.0 | 0.00 | 0.00 | 0.00 | 77 | 1007.2 |
| 20260506095458 | 18 | 142 | 4.8 | 11.3 | 0.00 | 0.00 | 0.00 | 77 | 1007.2 |
| 20260506095001 | 18 | 131 | 6.4 | 9.7 | 0.00 | 0.00 | 0.00 | 77 | 1007.2 |
| 20260506094458 | 18 | 142 | 8.0 | 16.1 | 0.00 | 0.00 | 0.00 | 77 | 1007.2 |
| 20260506093958 | 18 | 172 | 6.4 | 27.4 | 0.00 | 0.00 | 0.00 | 77 | 1007.2 |
| 20260506093458 | 18 | 144 | 6.4 | 27.4 | 0.00 | 0.00 | 0.00 | 77 | 1007.2 |
| 20260506092958 | 18 | 143 | 8.0 | 12.9 | 0.00 | 0.00 | 0.00 | 77 | 1007.2 |
| 20260506092458 | 18 | 142 | 8.0 | 12.9 | 0.00 | 0.00 | 0.00 | 77 | 1007.2 |
| 20260506091958 | 18 | 157 | 1.6 | 9.7 | 0.00 | 0.00 | 0.00 | 76 | 1007.3 |
| 20260506091458 | 18 | 122 | 4.8 | 12.9 | 0.00 | 0.00 | 0.00 | 77 | 1007.3 |
| 20260506090958 | 18 | 173 | 6.4 | 16.1 | 0.00 | 0.00 | 0.00 | 76 | 1007.3 |
| 20260506090501 | 18 | 171 | 6.4 | 8.0 | 0.00 | 0.00 | 0.00 | 76 | 1007.3 |
| 20260506085958 | 18 | 159 | 4.8 | 9.7 | 0.00 | 0.00 | 0.00 | 76 | 1007.6 |
| 20260506085501 | 18 | 142 | 4.8 | 16.1 | 0.00 | 0.00 | 0.00 | 76 | 1007.6 |
| 20260506084958 | 18 | 158 | 6.4 | 9.7 | 0.00 | 0.00 | 0.00 | 76 | 1007.6 |
| 20260506084501 | 18 | 180 | 3.2 | 12.9 | 0.00 | 0.00 | 0.00 | 76 | 1007.5 |
| 20260506084001 | 18 | 165 | 3.2 | 14.5 | 0.00 | 0.00 | 0.00 | 76 | 1007.5 |
| 20260506083458 | 18 | 131 | 4.8 | 24.1 | 0.00 | 0.00 | 0.00 | 76 | 1007.5 |
| 20260506082958 | 18 | 167 | 4.8 | 9.7 | 0.00 | 0.00 | 0.00 | 76 | 1007.6 |
| 20260506082458 | 18 | 159 | 6.4 | 11.3 | 0.00 | 0.00 | 0.00 | 75 | 1007.6 |
| 20260506081958 | 18 | 160 | 4.8 | 12.9 | 0.00 | 0.00 | 0.00 | 75 | 1007.6 |
| 20260506081458 | 18 | 161 | 8.0 | 11.3 | 0.00 | 0.00 | 0.00 | 75 | 1007.5 |
| 20260506081001 | 18 | 137 | 3.2 | 11.3 | 0.00 | 0.00 | 0.00 | 75 | 1007.5 |
| 20260506080458 | 18 | 127 | 4.8 | 14.5 | 0.00 | 0.00 | 0.00 | 75 | 1007.5 |
| 20260506073458 | 19 | 158 | 4.8 | 16.1 | 0.00 | 0.00 | 0.00 | 74 | 1007.6 |
| 20260506072958 | 19 | 177 | 3.2 | 20.9 | 0.00 | 0.00 | 0.00 | 74 | 1007.7 |
| 20260506072458 | 19 | 150 | 8.0 | 9.7 | 0.00 | 0.00 | 0.00 | 73 | 1007.7 |
| 20260506071958 | 19 | 172 | 6.4 | 20.9 | 0.00 | 0.00 | 0.00 | 73 | 1007.7 |
| 20260506071457 | 19 | 159 | 3.2 | 14.5 | 0.00 | 0.00 | 0.00 | 73 | 1007.8 |
| 20260506070958 | 19 | 153 | 4.8 | 14.5 | 0.00 | 0.00 | 0.00 | 73 | 1007.8 |
| 20260506070458 | 19 | 184 | 6.4 | 14.5 | 0.00 | 0.00 | 0.00 | 73 | 1007.8 |
| 20260506062457 | 20 | 166 | 3.2 | 11.3 | 0.00 | 0.00 | 0.00 | 71 | 1007.8 |
| 20260506061957 | 20 | 144 | 4.8 | 12.9 | 0.00 | 0.00 | 0.00 | 71 | 1007.8 |
| 20260506061457 | 20 | 146 | 4.8 | 16.1 | 0.00 | 0.00 | 0.00 | 71 | 1007.7 |
| 20260506060957 | 20 | 144 | 6.4 | 17.7 | 0.00 | 0.00 | 0.00 | 71 | 1007.7 |
| 20260506060457 | 20 | 199 | 8.0 | 11.3 | 0.00 | 0.00 | 0.00 | 70 | 1007.7 |
| 20260506050957 | 20 | 148 | 1.6 | 4.8 | 0.00 | 0.00 | 0.00 | 68 | 1008.5 |
| 20260506050457 | 20 | 187 | 1.6 | 9.7 | 0.00 | 0.00 | 0.00 | 67 | 1008.5 |
| 20260506044957 | 20 | 180 | 6.4 | 11.3 | 0.00 | 0.00 | 0.00 | 66 | 1008.5 |
| 20260506044457 | 20 | 181 | 1.6 | 12.9 | 0.00 | 0.00 | 0.00 | 66 | 1008.5 |
| 20260506043957 | 20 | 151 | 1.6 | 12.9 | 0.00 | 0.00 | 0.00 | 66 | 1008.5 |
| 20260506043457 | 20 | 140 | 6.4 | 11.3 | 0.00 | 0.00 | 0.00 | 65 | 1008.5 |
| 20260506042957 | 20 | 164 | 3.2 | 14.5 | 0.00 | 0.00 | 0.00 | 65 | 1008.3 |
| 20260506042457 | 21 | 196 | 8.0 | 11.3 | 0.00 | 0.00 | 0.00 | 65 | 1008.3 |
| 20260506041957 | 21 | 205 | 4.8 | 9.7 | 0.00 | 0.00 | 0.00 | 64 | 1008.3 |
| 20260506041457 | 21 | 172 | 3.2 | 16.1 | 0.00 | 0.00 | 0.00 | 64 | 1008.3 |
| 20260506040957 | 21 | 180 | 6.4 | 19.3 | 0.00 | 0.00 | 0.00 | 64 | 1008.3 |
| 20260506040457 | 21 | 209 | 12.9 | 17.7 | 0.00 | 0.00 | 0.00 | 64 | 1008.3 |
| 20260506035957 | 21 | 196 | 12.9 | 17.7 | 0.00 | 0.00 | 0.00 | 64 | 1008.3 |
| 20260506035457 | 21 | 201 | 4.8 | 8.0 | 0.00 | 0.00 | 0.00 | 63 | 1008.3 |
| 20260506034957 | 21 | 159 | 3.2 | 6.4 | 0.00 | 0.00 | 0.00 | 63 | 1008.3 |
| 20260506034457 | 21 | 188 | 4.8 | 11.3 | 0.00 | 0.00 | 0.00 | 62 | 1008.3 |
| 20260506033957 | 21 | 189 | 9.7 | 12.9 | 0.00 | 0.00 | 0.00 | 62 | 1008.3 |
| 20260506033457 | 21 | 176 | 3.2 | 20.9 | 0.00 | 0.00 | 0.00 | 62 | 1008.3 |
| 20260506032957 | 21 | 145 | 6.4 | 11.3 | 0.00 | 0.00 | 0.00 | 62 | 1008.3 |
| 20260506032457 | 21 | 157 | 4.8 | 19.3 | 0.00 | 0.00 | 0.00 | 61 | 1008.3 |
| 20260506031957 | 21 | 171 | 16.1 | 19.3 | 0.00 | 0.00 | 0.00 | 61 | 1008.3 |
| 20260506031457 | 21 | 158 | 14.5 | 16.1 | 0.00 | 0.00 | 0.00 | 61 | 1008.3 |
| 20260506031000 | 21 | 132 | 8.0 | 9.7 | 0.00 | 0.00 | 0.00 | 60 | 1008.3 |
| 20260506030457 | 21 | 194 | 8.0 | 17.7 | 0.00 | 0.00 | 0.00 | 60 | 1008.3 |
| 20260506025957 | 21 | 144 | 4.8 | 20.9 | 0.00 | 0.00 | 0.00 | 60 | 1008.3 |
| 20260506025457 | 21 | 169 | 6.4 | 14.5 | 0.00 | 0.00 | 0.00 | 59 | 1008.3 |
| 20260506024957 | 21 | 171 | 6.4 | 9.7 | 0.00 | 0.00 | 0.00 | 59 | 1008.3 |
| 20260506024457 | 21 | 183 | 4.8 | 12.9 | 0.00 | 0.00 | 0.00 | 58 | 1008.3 |
| 20260506023957 | 21 | 162 | 9.7 | 11.3 | 0.00 | 0.00 | 0.00 | 58 | 1008.3 |
| 20260506023457 | 21 | 157 | 4.8 | 17.7 | 0.00 | 0.00 | 0.00 | 58 | 1008.3 |
| 20260506022957 | 21 | 165 | 6.4 | 17.7 | 0.00 | 0.00 | 0.00 | 57 | 1008.3 |
| 20260506022500 | 22 | 199 | 3.2 | 11.3 | 0.00 | 0.00 | 0.00 | 57 | 1008.3 |
| 20260506022000 | 22 | 156 | 3.2 | 12.9 | 0.00 | 0.00 | 0.00 | 57 | 1008.3 |
| 20260506021500 | 22 | 169 | 1.6 | 22.5 | 0.00 | 0.00 | 0.00 | 56 | 1008.3 |
| 20260506020957 | 22 | 182 | 6.4 | 12.9 | 0.00 | 0.00 | 0.00 | 56 | 1008.3 |
| 20260506020457 | 22 | 208 | 8.0 | 16.1 | 0.00 | 0.00 | 0.00 | 56 | 1008.3 |
| 20260506015957 | 22 | 157 | 6.4 | 9.7 | 0.00 | 0.00 | 0.00 | 56 | 1008.2 |
| 20260506015457 | 22 | 163 | 3.2 | 22.5 | 0.00 | 0.00 | 0.00 | 56 | 1008.2 |
| 20260506014957 | 22 | 159 | 1.6 | 11.3 | 0.00 | 0.00 | 0.00 | 56 | 1008.2 |
| 20260506014500 | 22 | 157 | 0.0 | 14.5 | 0.00 | 0.00 | 0.00 | 56 | 1008.1 |
| 20260506013957 | 22 | 165 | 3.2 | 12.9 | 0.00 | 0.00 | 0.00 | 55 | 1008.1 |
| 20260506013500 | 22 | 153 | 6.4 | 9.7 | 0.00 | 0.00 | 0.00 | 55 | 1008.1 |
| 20260506012957 | 22 | 167 | 9.7 | 16.1 | 0.00 | 0.00 | 0.00 | 55 | 1007.8 |
| 20260506012500 | 22 | 148 | 3.2 | 11.3 | 0.00 | 0.00 | 0.00 | 54 | 1007.8 |
| 20260506012000 | 23 | 146 | 3.2 | 8.0 | 0.00 | 0.00 | 0.00 | 54 | 1007.8 |
| 20260506011457 | 23 | 141 | 4.8 | 14.5 | 0.00 | 0.00 | 0.00 | 53 | 1007.8 |
| 20260506010957 | 23 | 129 | 4.8 | 17.7 | 0.00 | 0.00 | 0.00 | 53 | 1007.8 |
| 20260506010457 | 23 | 155 | 6.4 | 20.9 | 0.00 | 0.00 | 0.00 | 52 | 1007.8 |
| 20260506005957 | 23 | 202 | 9.7 | 17.7 | 0.00 | 0.00 | 0.00 | 51 | 1007.7 |
| 20260506005457 | 23 | 162 | 3.2 | 11.3 | 0.00 | 0.00 | 0.00 | 50 | 1007.7 |
| 20260506004957 | 23 | 174 | 6.4 | 12.9 | 0.00 | 0.00 | 0.00 | 50 | 1007.7 |
| 20260506004500 | 23 | 126 | 3.2 | 16.1 | 0.00 | 0.00 | 0.00 | 49 | 1007.6 |
| 20260506003957 | 24 | 200 | 4.8 | 19.3 | 0.00 | 0.00 | 0.00 | 48 | 1007.6 |
| 20260506003457 | 24 | 182 | 9.7 | 19.3 | 0.00 | 0.00 | 0.00 | 48 | 1007.6 |
| 20260506002957 | 24 | 150 | 4.8 | 14.5 | 0.00 | 0.00 | 0.00 | 46 | 1007.3 |
| 20260506002457 | 25 | 187 | 4.8 | 14.5 | 0.00 | 0.00 | 0.00 | 45 | 1007.3 |
| 20260506001957 | 25 | 171 | 6.4 | 17.7 | 0.00 | 0.00 | 0.00 | 44 | 1007.3 |
| 20260506001457 | 25 | 157 | 3.2 | 16.1 | 0.00 | 0.00 | 0.00 | 43 | 1007.1 |
| 20260506000957 | 25 | 204 | 9.7 | 24.1 | 0.00 | 0.00 | 0.00 | 42 | 1007.1 |
| 20260506000457 | 25 | 146 | 4.8 | 19.3 | 0.00 | 0.00 | 0.00 | 41 | 1007.1 |
| 20260505235957 | 25 | 167 | 4.8 | 9.7 | 0.00 | 0.00 | 0.00 | 41 | 1006.9 |
| 20260505235457 | 26 | 147 | 3.2 | 16.1 | 0.00 | 0.00 | 0.00 | 39 | 1006.9 |
| 20260505235000 | 26 | 188 | 8.0 | 16.1 | 0.00 | 0.00 | 0.00 | 40 | 1006.9 |
| 20260505234457 | 26 | 167 | 4.8 | 14.5 | 0.00 | 0.00 | 0.00 | 39 | 1006.7 |
| 20260505234000 | 26 | 162 | 8.0 | 22.5 | 0.00 | 0.00 | 0.00 | 39 | 1006.7 |
| 20260505233457 | 26 | 177 | 6.4 | 25.7 | 0.00 | 0.00 | 0.00 | 38 | 1006.7 |
| 20260505233000 | 26 | 171 | 14.5 | 24.1 | 0.00 | 0.00 | 0.00 | 38 | 1006.7 |
| 20260505232457 | 26 | 188 | 9.7 | 29.0 | 0.00 | 0.00 | 0.00 | 38 | 1006.7 |
| 20260505231957 | 26 | 168 | 3.2 | 19.3 | 0.00 | 0.00 | 0.00 | 38 | 1006.7 |
| 20260505231457 | 27 | 145 | 8.0 | 22.5 | 0.00 | 0.00 | 0.00 | 37 | 1006.5 |
| 20260505230957 | 27 | 186 | 11.3 | 29.0 | 0.00 | 0.00 | 0.00 | 37 | 1006.5 |
| 20260505230459 | 27 | 176 | 9.7 | 19.3 | 0.00 | 0.00 | 0.00 | 37 | 1006.5 |
| 20260505225957 | 27 | 153 | 6.4 | 25.7 | 0.00 | 0.00 | 0.00 | 36 | 1006.2 |
| 20260505225457 | 27 | 175 | 9.7 | 29.0 | 0.00 | 0.00 | 0.00 | 36 | 1006.2 |
| 20260505224957 | 27 | 180 | 11.3 | 30.6 | 0.00 | 0.00 | 0.00 | 35 | 1006.2 |
| 20260505224457 | 27 | 196 | 8.0 | 29.0 | 0.00 | 0.00 | 0.00 | 34 | 1006.1 |
| 20260505223957 | 27 | 203 | 11.3 | 33.8 | 0.00 | 0.00 | 0.00 | 34 | 1006.1 |
| 20260505223457 | 27 | 205 | 11.3 | 38.6 | 0.00 | 0.00 | 0.00 | 34 | 1006.1 |
| 20260505222956 | 28 | 180 | 9.7 | 22.5 | 0.00 | 0.00 | 0.00 | 33 | 1006.3 |
| 20260505222456 | 28 | 225 | 3.2 | 19.3 | 0.00 | 0.00 | 0.00 | 31 | 1006.3 |
| 20260505221956 | 28 | 186 | 11.3 | 29.0 | 0.00 | 0.00 | 0.00 | 30 | 1006.3 |
| 20260505221457 | 28 | 260 | 3.2 | 17.7 | 0.00 | 0.00 | 0.00 | 30 | 1006.0 |
| 20260505220957 | 28 | 200 | 17.7 | 29.0 | 0.00 | 0.00 | 0.00 | 29 | 1006.0 |
| 20260505220456 | 28 | 186 | 6.4 | 30.6 | 0.00 | 0.00 | 0.00 | 30 | 1006.0 |
| 20260505215956 | 28 | 186 | 24.1 | 35.4 | 0.00 | 0.00 | 0.00 | 29 | 1005.7 |
| 20260505215457 | 28 | 192 | 24.1 | 29.0 | 0.00 | 0.00 | 0.00 | 29 | 1005.7 |
| 20260505214956 | 28 | 243 | 8.0 | 19.3 | 0.00 | 0.00 | 0.00 | 29 | 1005.7 |
| 20260505214456 | 28 | 188 | 9.7 | 19.3 | 0.00 | 0.00 | 0.00 | 28 | 1005.7 |
| 20260505213956 | 28 | 193 | 8.0 | 30.6 | 0.00 | 0.00 | 0.00 | 27 | 1005.7 |
| 20260505213456 | 28 | 202 | 29.0 | 35.4 | 0.00 | 0.00 | 0.00 | 27 | 1005.7 |
| 20260505212956 | 28 | 199 | 25.7 | 38.6 | 0.00 | 0.00 | 0.00 | 27 | 1005.7 |
| 20260505212456 | 28 | 128 | 9.7 | 29.0 | 0.00 | 0.00 | 0.00 | 27 | 1005.7 |
| 20260505211956 | 28 | 171 | 12.9 | 25.7 | 0.00 | 0.00 | 0.00 | 27 | 1005.7 |
| 20260505211456 | 28 | 203 | 22.5 | 24.1 | 0.00 | 0.00 | 0.00 | 28 | 1005.7 |
| 20260505210959 | 28 | 124 | 9.7 | 33.8 | 0.00 | 0.00 | 0.00 | 28 | 1005.7 |
| 20260505210456 | 28 | 194 | 12.9 | 32.2 | 0.00 | 0.00 | 0.00 | 29 | 1005.7 |
| 20260505205956 | 28 | 188 | 22.5 | 32.2 | 0.00 | 0.00 | 0.00 | 30 | 1005.5 |
| 20260505205456 | 28 | 180 | 14.5 | 27.4 | 0.00 | 0.00 | 0.00 | 34 | 1005.5 |
| 20260505204956 | 28 | 196 | 11.3 | 27.4 | 0.00 | 0.00 | 0.00 | 32 | 1005.5 |
| 20260505204456 | 29 | 150 | 6.4 | 24.1 | 0.00 | 0.00 | 0.00 | 35 | 1005.5 |
| 20260505203956 | 29 | 169 | 11.3 | 27.4 | 0.00 | 0.00 | 0.00 | 34 | 1005.5 |
| 20260505203456 | 29 | 163 | 17.7 | 35.4 | 0.00 | 0.00 | 0.00 | 33 | 1005.5 |
| 20260505202956 | 28 | 167 | 11.3 | 19.3 | 0.00 | 0.00 | 0.00 | 31 | 1005.5 |
| 20260505202456 | 28 | 179 | 4.8 | 32.2 | 0.00 | 0.00 | 0.00 | 32 | 1005.5 |
| 20260505201958 | 28 | 185 | 12.9 | 29.0 | 0.00 | 0.00 | 0.00 | 33 | 1005.5 |
| 20260505201456 | 28 | 134 | 19.3 | 40.2 | 0.00 | 0.00 | 0.00 | 31 | 1005.7 |
| 20260505200956 | 29 | 175 | 17.7 | 27.4 | 0.00 | 0.00 | 0.00 | 34 | 1005.7 |
| 20260505200459 | 29 | 192 | 9.7 | 29.0 | 0.00 | 0.00 | 0.00 | 34 | 1005.7 |
| 20260505195956 | 29 | 173 | 9.7 | 22.5 | 0.00 | 0.00 | 0.00 | 34 | 1005.7 |
| 20260505195456 | 29 | 194 | 9.7 | 25.7 | 0.00 | 0.00 | 0.00 | 34 | 1005.7 |
| 20260505194956 | 29 | 132 | 11.3 | 24.1 | 0.00 | 0.00 | 0.00 | 33 | 1005.7 |
| 20260505194456 | 29 | 172 | 1.6 | 27.4 | 0.00 | 0.00 | 0.00 | 34 | 1006.1 |
| 20260505193956 | 29 | 182 | 12.9 | 17.7 | 0.00 | 0.00 | 0.00 | 33 | 1006.1 |
| 20260505193459 | 29 | 192 | 12.9 | 22.5 | 0.00 | 0.00 | 0.00 | 33 | 1006.1 |
| 20260505192959 | 29 | 181 | 12.9 | 27.4 | 0.00 | 0.00 | 0.00 | 33 | 1005.9 |